This is the latest recevied weather packets stored in our database for station/object N1HRK. If no packets are shown the sender has not sent any weather packets the latest 1 day(s).
| Time | Temp. | Humidity | Pressure | Rain* | Wind** | Luminosity | Snow |
|---|---|---|---|---|---|---|---|
| 1778028724 | 13.89° C | 73% | 1011.6 hPa | 0 mm | 1.79 m/s, 281° | - | - |
| 1778028124 | 13.89° C | 73% | 1011.4 hPa | 0 mm | 3.13 m/s, 229° | - | - |
| 1778027523 | 15° C | 73% | 1011.2 hPa | 0 mm | 2.68 m/s, 276° | - | - |
| 1778026924 | 15.56° C | 73% | 1010.8 hPa | 0 mm | 4.92 m/s, 264° | - | - |
| 1778026324 | 14.44° C | 73% | 1010.5 hPa | 0 mm | 3.13 m/s, 262° | - | - |
| 1778025722 | 15° C | 73% | 1010.2 hPa | 0 mm | 4.47 m/s, 232° | - | - |
| 1778025124 | 15° C | 73% | 1009.6 hPa | 0 mm | 2.68 m/s, 236° | - | - |
| 1778024524 | 15° C | 73% | 1009.5 hPa | 0 mm | 2.68 m/s, 266° | - | - |
| 1778023923 | 15° C | 72% | 1009.7 hPa | 0 mm | 3.13 m/s, 221° | - | - |
| 1778023323 | 15° C | 72% | 1009.7 hPa | 0 mm | 3.58 m/s, 235° | - | - |
| 1778022723 | 15.56° C | 71% | 1009.8 hPa | 0 mm | 4.47 m/s, 245° | - | - |
| 1778022124 | 15° C | 71% | 1009.9 hPa | 0 mm | 3.13 m/s, 245° | - | - |
| 1778021523 | 15.56° C | 71% | 1009.9 hPa | 0 mm | 2.68 m/s, 257° | - | - |
| 1778020924 | 15.56° C | 70% | 1009.8 hPa | 0 mm | 2.68 m/s, 193° | - | - |
| 1778020325 | 15.56° C | 70% | 1009.7 hPa | 0 mm | 1.79 m/s, 248° | - | - |
| 1778019723 | 15.56° C | 70% | 1009.5 hPa | 0 mm | 2.68 m/s, 255° | - | - |
| 1778019123 | 15.56° C | 70% | 1009.5 hPa | 0 mm | 2.24 m/s, 226° | - | - |
| 1778018523 | 15.56° C | 70% | 1009.6 hPa | 0 mm | 3.13 m/s, 226° | - | - |
| 1778017923 | 15.56° C | 70% | 1009.6 hPa | 0 mm | 1.34 m/s, 214° | - | - |
| 1778017324 | 16.11° C | 70% | 1009.5 hPa | 0 mm | 1.34 m/s, 281° | - | - |
| 1778016724 | 16.11° C | 68% | 1009.6 hPa | 0 mm | 2.68 m/s, 233° | - | - |
| 1778016124 | 16.11° C | 68% | 1009.6 hPa | 0 mm | 3.58 m/s, 252° | - | - |
| 1778015524 | 16.11° C | 69% | 1009.4 hPa | 0 mm | 3.13 m/s, 226° | - | - |
| 1778014924 | 16.11° C | 69% | 1009.5 hPa | 0 mm | 2.24 m/s, 198° | - | - |
| 1778014324 | 16.67° C | 68% | 1009.1 hPa | 0 mm | 2.68 m/s, 245° | - | - |
* Rain latest hour (hover to see other rain measurements)
** Current wind speed in m/s (hover to see current wind gust speed)